Regional Weather Roundup
Issued by NWS

Home | Current Version | Previous Version | Text Only | Print | Product List | Glossary On
Versions: 1 2 3 4 5 6 7 8 9 10 11 12 13 14 15 16 17 18 19 20 21 22 23 24 25 26 27 28 29 30 31 32 33 34 35 36 37 38 39 40 41 42 43 44 45 46 47 48 49 50
000
ASUS43 KDTX 232001
RWRMI
MICHIGAN HOURLY REGIONAL WEATHER ROUNDUP
NATIONAL WEATHER SERVICE DETROIT/PONTIAC MI
300 PM EST MON JAN 23 2017

NOTE: "FAIR" INDICATES FEW OR NO CLOUDS BELOW 12,000 FEET WITH NO
SIGNIFICANT WEATHER AND/OR OBSTRUCTION TO VISIBILITY.

MIZ047>049-052>055-059>063-066>070-074>076-081>083-232100-
SOUTHEAST LOWER MICHIGAN

CITY           SKY/WX    TMP DP  RH WIND       PRES   REMARKS
ADRIAN         CLOUDY    43  43 100 NE6       29.64S
ALMA           LGT RAIN  39  39  99 N5        29.69S
ANN ARBOR      CLOUDY    44  42  93 N8        29.63F
BAD AXE        CLOUDY    38  38 100 E3        29.70S FOG
CARO           DRIZZLE   39  39  99 N5        29.68S
DETROIT CITY   CLOUDY    44  42  93 N6        29.64F FOG
DETROIT        CLOUDY    44  42  93 N8        29.64S FOG
FLINT          LGT RAIN  41  39  93 NE7       29.67F
GROSSE ILE     CLOUDY    43  41  95 NE6       29.63R FOG
HILLSDALE      LGT RAIN  41  41 100 N7        29.62S
HOWELL         DRIZZLE   40  39  97 N5        29.65S

CITY           SKY/WX    TMP DP  RH WIND       PRES   REMARKS
JACKSON        LGT RAIN  42  40  92 N5        29.64F
LAMBERTVILLE   CLOUDY    44  41  91 CALM      29.64R
LANSING        LGT RAIN  40  37  89 N6        29.67F FOG
LAPEER         CLOUDY    40  39  99 N6        29.66F FOG
MASON          LGT RAIN  40  40 100 N6        29.66S
MONROE         CLOUDY    44  43  97 NE5       29.63R FOG
MT. CLEMENS    CLOUDY    42  42 100 N8        29.63F FOG
PONTIAC        CLOUDY    42  40  92 N6        29.63F
PORT HOPE        N/A     36  36 100 NE7       29.70S WCI  30
PORT HURON     CLOUDY    41  41 100 N5        29.66S FOG
TRI CITIES     LGT RAIN  38  38 100 NE7       29.69F VSB 1   WCI  33
MIDLAND        DRIZZLE   39  38  97 CALM      29.69S
TROY           CLOUDY    42  40  94 N5        29.66S FOG
SAGINAW HB     DRIZZLE   37  36  93 N6        29.69S WCI  33
$$
MIZ043>046-050>051-056>058-064>065-071>073-077>080-232100-
SOUTHWEST LOWER MICHIGAN

CITY           SKY/WX    TMP DP  RH WIND       PRES   REMARKS
BATTLE CREEK   CLOUDY    42  41  96 N9        29.66S FOG
BENTON HARBOR  CLOUDY    40  37  89 N7        29.71S
BIG RAPIDS     CLOUDY    39  38  98 N5        29.69R FOG
COLDWATER      MIX PCPN  41  41 100 N5        29.64S
FREMONT        CLOUDY    42  38  84 N6        29.70S
HOLLAND        CLOUDY    41  36  82 NW6       29.71R
GRAND RAPIDS   DRIZZLE   42  39  89 N6        29.68F
IONIA          CLOUDY    39  39  99 N5        29.67S FOG
KALAMAZOO      CLOUDY    42  40  92 N8        29.68R FOG
LUDINGTON      CLOUDY    39  39 100 NW7       29.72S FOG     WCI  34
MARSHALL       CLOUDY    40  40  98 N3        29.65S
MOUNT PLEASANT CLOUDY    39  38  98 N3        29.69S FOG
MUSKEGON       CLOUDY    44  38  79 NW7       29.71R
SOUTH HAVEN    CLOUDY    39  38  97 N7        29.70S WCI  34
$$
MIZ016>042-232100-
NORTHERN LOWER MICHIGAN

CITY           SKY/WX    TMP DP  RH WIND       PRES   REMARKS
ALPENA         LGT RAIN  37  36  96 E6        29.73F FOG     WCI  32
BEAVER ISLAND  FOG       35  35 100 E5        29.74S VSB 3/4 WCI  31
BELLAIRE       CLOUDY    38  38 100 CALM      29.72S FOG
CADILLAC       CLOUDY    38  37  97 CALM      29.68F FOG
CHARLEVOIX     FOG       37  37 100 CALM      29.75S VSB 1/4
FRANKFORT      CLOUDY    41  39  95 N5        29.72S
GAYLORD        FOG       38  34  85 CALM      29.70S VSB 3/4
GRAYLING       CLOUDY    38  37  99 CALM      29.70F FOG
HARBOR SPRINGS FOG       36  36 100 NE6       29.72F VSB 3/4 WCI  31
HOUGHTON LAKE  CLOUDY    38  37  97 N5        29.69S FOG     WCI  34
MANISTEE       CLOUDY    40  39  97 VRB3      29.72S
OSCODA         MIX PCPN  38  37  97 NE3       29.71S
PELLSTON       FOG       36  34  92 E7        29.74S VSB 1/4 WCI  30
ROGERS CITY    FOG       36  35  96 E6        29.75S VSB 1/2 WCI  31
TRAVERSE CITY  CLOUDY    40  38  93 CALM      29.71S FOG
$$
MIZ007>008-015-232100-
EASTERN UPPER MICHIGAN

CITY           SKY/WX    TMP DP  RH WIND       PRES   REMARKS
KINROSS        CLOUDY    34  33  96 E13       29.76S WCI  25
MACKINAC ISLAN FOG       34  34 100 E8        29.75S VSB 1/4 WCI  27
NEWBERRY       CLOUDY    33  33  96 NE6       29.74F FOG     WCI  28
S. S. MARIE    CLOUDY    37  34  89 VRB5      29.76F WCI  33
MUNISING         N/A     35  35 100 N5        29.75F WCI  31
$$
MIZ004>006-011>014-085-232100-
CENTRAL UPPER MICHIGAN

CITY           SKY/WX    TMP DP  RH WIND       PRES   REMARKS
MANISTIQUE     FOG       35  34  97 E5        29.74S VSB 1   WCI  31
ESCANABA       LGT RAIN  38  37  97 N3        29.75S
SAWYER-GWINN   CLOUDY    34  34 100 N5        29.73F WCI  30
$$
MIZ001>003-009>011-084-232100-
WESTERN UPPER MICHIGAN

CITY           SKY/WX    TMP DP  RH WIND       PRES   REMARKS
IRON MOUNTAIN  CLOUDY    36  33  89 NW6       29.73S WCI  31
HOUGHTON       CLOUDY    36  33  89 W7        29.73F WCI  30
COPPER HARBOR    N/A     35  34  96 N8        29.75S WCI  29
IRONWOOD       FOG       36  35  96 W3        29.75S VSB 1/2
$$

ABBREVIATIONS USED IN REMARKS
   TC - TEMPERATURE IN CELSIUS
  WCI - WIND CHILL INDEX
   HX - HEAT INDEX
  VSB - VISIBILITY





USA.gov is the U.S. government's official web portal to all federal, state and local government web resources and services.